CW6723 Weather Reports


Display with metric or nautical units.
time (UTC)temp
F
wind
direction
speed
MPH
gust
MPH
rain 1hr
in
rain 24hr
in
rain mn
in
humidity
%
barometer
mb
20260503183013 60 271 1.0 4.0 0.00 0.01 0.00 73 1011.6
20260503181507 59 248 1.0 4.0 0.00 0.01 0.00 75 1011.6
20260503180006 59 355 2.0 6.0 0.00 0.01 0.00 73 1011.7
20260503174504 59 87 2.0 6.0 0.00 0.01 0.00 77 1011.6
20260503173003 59 342 2.0 8.0 0.00 0.01 0.00 75 1011.5
20260503171600 0 244 1.0 5.0 0.00 0.01 0.00 1011.4
20260503081518 54 231 1.0 5.0 0.00 0.01 0.00 82 1010.1
20260503071509 54 251 0.0 2.0 0.00 0.01 0.00 83 1010.2
20260503054505 54 217 0.0 4.0 0.00 0.01 0.01 82 1010.6
20260503053004 54 355 0.0 4.0 0.00 0.01 0.01 82 1010.8
20260503051503 54 295 1.0 4.0 0.01 0.01 0.01 81 1010.8
20260503050010 54 291 1.0 9.0 0.01 0.01 0.01 81 1010.7
20260503044502 54 315 1.0 4.0 0.01 0.01 0.01 82 1010.6
20260503043004 54 184 1.0 5.0 0.01 0.01 0.01 81 1010.6
20260503041504 54 300 1.0 4.0 0.00 0.00 0.00 81 1010.5
20260503040001 54 360 1.0 5.0 0.00 0.00 0.00 81 1010.4
20260503034601 54 322 2.0 5.0 0.00 0.00 0.00 81 1010.4
20260503033104 54 301 2.0 5.0 0.00 0.00 0.00 82 1010.2
20260503031607 54 338 2.0 8.0 0.00 0.00 0.00 82 1010.1
20260503030059 54 285 2.0 6.0 0.00 0.00 0.00 81 1009.8
20260503024559 55 263 1.0 8.0 0.00 0.01 0.00 80 1009.7
20260503023057 55 300 1.0 5.0 0.00 0.01 0.00 80 1009.8
20260503021559 55 309 3.0 8.0 0.00 0.01 0.00 79 1009.8
20260503020056 56 334 4.0 9.0 0.00 0.01 0.00 78 1009.8
20260503014609 56 279 3.0 7.0 0.00 0.01 0.00 77 1009.8
20260503013053 56 297 3.0 8.0 0.00 0.01 0.00 76 1009.9
20260503011557 57 321 2.0 6.0 0.00 0.01 0.00 76 1010.0
20260503010051 57 234 3.0 8.0 0.00 0.01 0.00 75 1010.0
20260503004550 58 329 3.0 10.0 0.00 0.01 0.00 75 1010.0
20260503003049 58 355 2.0 8.0 0.00 0.01 0.00 73 1010.0
20260503001559 59 285 3.0 10.0 0.00 0.01 0.00 73 1010.2
20260503000046 60 296 3.0 10.0 0.00 0.01 0.00 72 1010.2
20260502234547 61 346 2.0 7.0 0.00 0.01 0.00 70 1010.3
20260502233046 61 309 1.0 5.0 0.00 0.01 0.00 71 1010.4
20260502231540 62 330 2.0 7.0 0.00 0.01 0.00 71 1010.7
20260502230039 61 294 3.0 8.0 0.00 0.01 0.00 72 1010.9
20260502224538 60 323 3.0 11.0 0.00 0.01 0.00 72 1011.0
20260502223037 61 275 2.0 8.0 0.00 0.01 0.00 71 1011.3
20260502221541 60 301 3.0 9.0 0.00 0.01 0.00 72 1011.5
20260502220036 61 305 3.0 9.0 0.00 0.01 0.00 70 1011.6
20260502214536 61 342 2.0 8.0 0.00 0.01 0.00 71 1011.7
20260502213036 61 78 2.0 13.0 0.00 0.01 0.00 72 1011.8
20260502211534 61 339 2.0 7.0 0.00 0.01 0.00 73 1011.9
20260502210031 60 178 1.0 6.0 0.00 0.01 0.00 75 1012.2
20260502204529 59 319 2.0 6.0 0.00 0.01 0.00 76 1012.3
20260502203025 58 326 2.0 4.0 0.00 0.01 0.00 77 1012.5
20260502201525 59 323 1.0 5.0 0.00 0.01 0.00 79 1012.5
20260502200023 58 331 0.0 5.0 0.00 0.01 0.00 80 1012.7
20260502194520 57 355 1.0 4.0 0.00 0.01 0.00 80 1012.7
20260502193019 57 321 1.0 5.0 0.00 0.01 0.00 79 1012.7
20260502191517 57 313 1.0 7.0 0.00 0.01 0.00 82 1012.7
20260502190015 56 62 1.0 5.0 0.00 0.02 0.00 83 1012.7
20260502184525 56 298 1.0 5.0 0.00 0.02 0.00 83 1012.7